Kenosha, WI

10:21 PM CDT on July 20, 2017 (GMT -0500)
Kenosha Regional

Weather History for KENW - September, 2013

Change the Weather History Date:

Friday, September 27, 2013

  Actual Average Record
Temperature  
Mean Temperature 60 °F -  
Max Temperature 77 °F 67 °F 88 °F (1954)
Min Temperature 44 °F 48 °F 35 °F (1984)
Degree Days  
Heating Degree Days 4    
Growing Degree Days 10 (Base 50)    
Moisture  
Dew Point 48 °F    
Average Humidity 84    
Maximum Humidity 100    
Minimum Humidity 46    
Precipitation  
Precipitation 0.00 in - - ()
Sea Level Pressure  
Sea Level Pressure 30.13 in    
Wind  
Wind Speed 2 mph (SE)    
Max Wind Speed 13 mph    
Max Gust Speed -    
Visibility 5 miles    
Events Fog    
Averages and records for this station are not official NWS values.
T = Trace of Precipitation, MM = Missing Value Source: NWS Daily Summary

Daily Weather History Graph

Daily Weather History Graph

Search for Another Location

Airport or City:

Trip Planner

Search our weather history database for the weather conditions in past years. The results will help you decide how hot, cold, wet, or windy it might be!

Date:

Astronomy

Sep. 27, 2013 Rise Set
Actual Time 6:44 AM CDT 6:39 PM CDT
Civil Twilight 6:16 AM CDT 7:07 PM CDT
Nautical Twilight 5:43 AM CDT 7:40 PM CDT
Astronomical Twilight 5:10 AM CDT 8:13 PM CDT
Moon No Moon Rise 2:24 PM CDT (9/27)
Length of Visible Light 12h 51m
Length of Day
11h 54m
Last Quarter, 45% of the Moon is Illuminated
Sep 27
Last Quarter
Oct 4
New
Oct 11
First Quarter
Oct 18
Full
Oct 26
Last Quarter

Hourly Weather History & Observations

Time (CDT) Temp. Windchill Dew Point Humidity Pressure Visibility Wind Dir Wind Speed Gust Speed Precip Events Conditions
12:05 AM 46.4 °F 45.2 °F 44.6 °F 93% 30.11 in 0.8 mi NNW 3.5 mph - N/A   Clear
12:13 AM 46.4 °F 45.2 °F 44.6 °F 93% 30.11 in 1.2 mi NNW 3.5 mph - N/A   Clear
12:30 AM 46.4 °F - 44.6 °F 93% 30.11 in 0.2 mi Calm Calm - N/A Fog Fog
12:40 AM 46.4 °F - 44.6 °F 93% 30.11 in 1.0 mi Calm Calm - N/A   Clear
12:49 AM 46.4 °F - 44.6 °F 93% 30.11 in 2.5 mi Calm Calm - N/A   Clear
12:53 AM 46.9 °F - 45.0 °F 93% 30.12 in 1.5 mi Calm Calm - N/A   Clear
1:06 AM 46.4 °F - 44.6 °F 93% 30.11 in 3.0 mi Calm Calm - N/A   Clear
1:26 AM 48.2 °F - 46.4 °F 93% 30.11 in 3.0 mi Calm Calm - N/A   Partly Cloudy
1:32 AM 46.4 °F - 46.4 °F 100% 30.12 in 1.8 mi Calm Calm - N/A   Clear
1:35 AM 46.4 °F - 46.4 °F 100% 30.12 in 0.2 mi Calm Calm - N/A Fog Fog
1:53 AM 46.0 °F - 45.0 °F 96% 30.12 in 0.2 mi Calm Calm - N/A Fog Fog
2:29 AM 46.4 °F - 44.6 °F 93% 30.12 in 1.0 mi Calm Calm - N/A   Mist
2:31 AM 46.4 °F - 44.6 °F 93% 30.12 in 2.5 mi Calm Calm - N/A   Clear
2:38 AM 44.6 °F - 44.6 °F 100% 30.12 in 3.0 mi Calm Calm - N/A   Clear
2:46 AM 44.6 °F - 44.6 °F 100% 30.12 in 1.8 mi Calm Calm - N/A   Clear
2:53 AM 46.0 °F - 44.1 °F 93% 30.12 in 1.5 mi Calm Calm - N/A   Clear
2:56 AM 46.4 °F - 44.6 °F 93% 30.12 in 3.0 mi Calm Calm - N/A   Clear
3:53 AM 46.0 °F - 44.1 °F 93% 30.14 in 2.0 mi Calm Calm - N/A   Clear
4:02 AM 46.4 °F - 44.6 °F 93% 30.13 in 1.0 mi Calm Calm - N/A   Clear
4:10 AM 44.6 °F - 42.8 °F 93% 30.13 in 0.5 mi Calm Calm - N/A Fog Fog
4:18 AM 46.4 °F - 44.6 °F 93% 30.13 in 0.2 mi Calm Calm - N/A Fog Fog
4:47 AM 44.6 °F - 44.6 °F 100% 30.14 in 1.0 mi Calm Calm - N/A   Clear
4:50 AM 44.6 °F - 44.6 °F 100% 30.14 in 3.0 mi Calm Calm - N/A   Clear
4:53 AM 45.0 °F - 44.1 °F 97% 30.14 in 3.0 mi Calm Calm - N/A   Clear
5:41 AM 46.4 °F - 44.6 °F 93% 30.15 in 1.8 mi Calm Calm - N/A   Clear
5:50 AM 46.4 °F - 44.6 °F 93% 30.15 in 0.2 mi Calm Calm - N/A Fog Fog
5:53 AM 46.9 °F - 46.0 °F 97% 30.16 in 0.2 mi Calm Calm - N/A Fog Fog
6:01 AM 48.2 °F - 46.4 °F 93% 30.15 in 1.2 mi South 3.5 mph - N/A   Clear
6:07 AM 48.2 °F - 46.4 °F 93% 30.15 in 3.0 mi South 3.5 mph - N/A   Clear
6:36 AM 46.4 °F - 46.4 °F 100% 30.16 in 1.5 mi Calm Calm - N/A   Clear
6:41 AM 46.4 °F - 46.4 °F 100% 30.16 in 0.2 mi Calm Calm - N/A Fog Fog
6:53 AM 46.9 °F - 46.0 °F 97% 30.17 in 0.8 mi Calm Calm - N/A   Clear
6:55 AM 46.4 °F 45.2 °F 46.4 °F 100% 30.17 in 10.0 mi West 3.5 mph - N/A   Clear
7:53 AM 53.1 °F - 52.0 °F 96% 30.18 in 10.0 mi Calm Calm - N/A   Clear
8:53 AM 63.0 °F - 54.0 °F 72% 30.19 in 10.0 mi South 3.5 mph - N/A   Clear
9:53 AM 69.1 °F - 52.0 °F 54% 30.18 in 10.0 mi South 6.9 mph - N/A   Clear
10:53 AM 73.9 °F - 53.1 °F 48% 30.18 in 10.0 mi SSE 5.8 mph - N/A   Clear
11:53 AM 75.0 °F - 55.0 °F 50% 30.17 in 10.0 mi ESE 9.2 mph - N/A   Clear
12:53 PM 77.0 °F - 55.0 °F 47% 30.15 in 10.0 mi ESE 10.4 mph - N/A   Clear
1:53 PM 75.9 °F - 55.0 °F 48% 30.14 in 10.0 mi East 10.4 mph - N/A   Clear
2:53 PM 75.9 °F - 54.0 °F 46% 30.13 in 10.0 mi SE 10.4 mph - N/A   Clear
3:53 PM 73.9 °F - 55.0 °F 52% 30.12 in 10.0 mi ESE 12.7 mph - N/A   Clear
4:53 PM 72.0 °F - 52.0 °F 49% 30.10 in 10.0 mi ESE 10.4 mph - N/A   Clear
5:53 PM 71.1 °F - 51.1 °F 49% 30.10 in 10.0 mi ESE 8.1 mph - N/A   Clear
6:53 PM 66.0 °F - 48.9 °F 54% 30.09 in 10.0 mi ESE 6.9 mph - N/A   Clear
7:53 PM 61.0 °F - 53.1 °F 75% 30.09 in 10.0 mi ESE 5.8 mph - N/A   Clear
8:53 PM 63.0 °F - 55.0 °F 75% 30.10 in 10.0 mi ESE 5.8 mph - N/A   Clear
9:53 PM 63.0 °F - 54.0 °F 72% 30.09 in 10.0 mi SE 4.6 mph - N/A   Clear
10:53 PM 63.0 °F - 54.0 °F 72% 30.09 in 10.0 mi SE 5.8 mph - N/A   Clear
11:53 PM 64.9 °F - 55.9 °F 73% 30.09 in 10.0 mi SE 9.2 mph - N/A   Clear